{"data":{"norad_id":64935,"epoch":"2026-09-20T14:38:55.858272Z","epoch_age_seconds":114684,"freshness":"FRESH","line1":"1 64935U 25158D   26263.61036873  .00010734  00000+0  33434-3 0  9995","line2":"2 64935  97.2819 121.9269 0002562  94.5769 265.5766 15.33444472 64723","mean_motion":15.33444472,"eccentricity":0.0002562,"inclination_deg":97.2819,"raan_deg":121.9269,"arg_perigee_deg":94.5769,"mean_anomaly_deg":265.5766,"bstar":0.00033434,"rev_number":6472,"period_min":93.906236990889,"perigee_km":463.79139417192,"apogee_km":467.29809669828,"semimajor_km":6843.6817454351,"source":"CELESTRAK","updated_at":"2026-09-21T09:00:35.486506Z"}}